STARLINK-11411, 62018

Orbit data source: Space-Track

STARLINK-11411, 62018 is a payload satellite owned by SpaceX/Seattle (US) in LEO that was launched on Mon, 18 Nov 2024 UTC via an FALCON 9 launch vehicle from the Air Force Western Test Range (AFWTR). Payload-class satellites include a variety of spacecraft equipped with specific instruments for various scientific and technological missions. These include communications satellites like Starlink; space stations such as the ISS; scientific satellites like the Hubble; Earth observation satellites from companies like Planet Labs, Umbra, and HawkEye 360; GPS; miniature CubeSats for education and research; and military/defense satellites.

Loading next visibility...
Identifier
62018, 2024-213L
Orbit
LEO
Country
Flag of USUS
Related business
Manufacturer
SpaceX/Seattle
Mission
Operational Commercial Communications
Bus & Motor
STARLINK V2MD, Unknown motor
Mass
960 kg wet, ~910 kg dry
Launch date (UTC)
2024-11-18 (1 year ago)
Launch vehicle
FALCON 9
Launch site
Air Force Western Test Range (AFWTR)
Object type
Payload
Rocket body
Debris
Shape & HBR
Box + 2 Pan, 18.1 m
Radar Cross Section
36.964 m², Large (>1 m²)

Expand to show TLE details & history
Last TLE update: 11 hours ago

TLE from 11 hours ago
0 STARLINK-11411
1 62018U 24213L   25341.93232630  .00169246  00000-0  13701-2 0  9994
2 62018  53.1577 133.5955 0001181 117.3782 242.7356 15.69769828 60509
Epoch: 2025-12-07T22:22Z
TLE epoch observation values (Epoch: 2025-12-07T22:22:32.992Z)
Latitude
-0.00003°
Longitude
81.01939°
Altitude
360.835 km
Speed
7.694 km/s
True Right ascension
08h 54m 22s
True Declination
0° 00' 00"
Sunlit
Object was in full shadow at epoch
Visualization orbit readout
Latitude
Unknown
Longitude
Unknown
Altitude
Unknown
Speed
Unknown
Apparent Right ascension
Unknown
Apparent Declination
Unknown
Sunlit
N/A
Visualization observer readout
Local Sidereal Time
07:38:15
Azimuth
Unknown
Elevation
Unknown
Doppler factor
Unknown
Orbital elements
Apogee altitude
360.612 km
Perigee altitude
359.021 km
Semi-major axis
6,737.954 km
Eccentricity
0.00012
Inclination
53.1577°
RAAN
133.5955°
Arg. of periapsis
117.3782°
True anomaly
242.72357°
Mean anomaly
242.7356°
Eccentric anomaly
242.72959°
Mean motion
3.9242 °/min
Orbital period
91.74 mins
BSTAR
0.0013701
Loading maneuver chart data...
Computing Atmospheric mass density...
Loading historical data...
Loading historical data...
Loading historical data...
Loading historical data...
Loading historical data...
Loading historical data...
Loading historical data...

Documentation

Showing up to 5 results
|